"startDT [UTC]","vpos","CH4 [ppm]","stdev(CH4) [ppm]","CO2 [ppm]","stdev(CO2) [ppm]","H2O [ppm]","stdev(H2O)","p_LGR [torr]","T_LGR [C]","mt1_LGR [us]","mt2_LGR [us]","T_ECpre [C]","T_EC1 [C]","T_EC2 [C]","p_inlet [hPa]","p_in [hPa]","p_out [hPa]","T_inlet [C]","RH_inlet [%]","dwpt_inlet [C]","T_vent [C]","RH_vent [%]","dwpt_vent [C]","flow_vent [l min-1]","flow_inlet [l min-1]","dwpt_sample [C]","T_room [C]"
2012-01-31 00:00:00,0.0,1.9295,0.0008,402.13,0.20,156.2,30.7,138.14,28.59,24.61,36.33,0.04,-272.74,-272.74,-53,553,-927,23.5,4.6,-19.2,23.5,4.8,-18.8,5.73,2.29,-24.6,26.6
2012-01-31 00:01:00,0.0,1.9296,0.0009,402.13,0.17,157.8,36.7,138.13,28.58,24.61,36.33,0.04,-272.74,-272.74,-53,553,-927,23.5,4.6,-19.2,23.5,4.8,-18.8,5.73,2.31,-24.5,27.1
2012-01-31 00:02:00,0.0,1.9300,0.0008,402.06,0.19,181.0,33.2,138.12,28.59,24.60,36.33,0.04,-272.73,-272.74,-53,553,-927,23.6,4.6,-19.2,23.6,4.8,-18.8,5.73,2.48,-24.4,27.5
2012-01-31 00:03:00,0.0,1.9300,0.0010,402.09,0.22,199.4,36.8,138.11,28.61,24.61,36.33,0.04,-272.74,-272.74,-53,553,-927,23.6,4.6,-19.2,23.6,4.8,-18.8,5.73,2.25,-24.3,27.7
2012-01-31 00:04:00,0.0,1.9300,0.0009,402.07,0.19,222.6,28.3,138.11,28.63,24.61,36.33,0.04,-272.74,-272.74,-53,553,-927,23.7,4.6,-19.2,23.7,4.8,-18.8,5.73,2.46,-24.1,27.9
2012-01-31 00:05:00,0.0,1.9306,0.0008,402.17,0.21,239.1,27.6,138.10,28.65,24.61,36.33,0.04,-272.74,-272.74,-53,553,-927,23.7,4.6,-19.1,23.7,4.8,-18.7,5.73,2.26,-24.0,28.1
2012-01-31 00:06:00,0.0,1.9316,0.0013,402.20,0.21,239.2,35.9,138.09,28.68,24.61,36.33,0.04,-272.74,-272.74,-52,553,-927,23.7,4.6,-19.1,23.7,4.8,-18.7,5.73,2.46,-23.9,28.2
2012-01-31 00:07:00,0.0,1.9325,0.0009,402.16,0.20,255.9,32.3,138.09,28.71,24.61,36.34,0.04,-272.74,-272.74,-53,553,-927,23.8,4.6,-19.1,23.8,4.7,-18.7,5.73,2.25,-23.8,28.4
2012-01-31 00:08:00,0.0,1.9336,0.0009,402.16,0.20,264.4,29.4,138.08,28.74,24.61,36.34,0.04,-272.74,-272.74,-53,553,-927,23.8,4.6,-19.1,23.8,4.7,-18.7,5.73,2.48,-23.7,28.4
2012-01-31 00:09:00,0.0,1.9341,0.0011,402.26,0.21,270.0,29.2,138.08,28.77,24.61,36.34,0.04,-272.74,-272.74,-53,553,-927,23.9,4.6,-19.1,23.9,4.8,-18.7,5.73,2.25,-23.6,28.0
2012-01-31 00:10:00,0.0,1.9339,0.0010,402.30,0.22,265.8,27.7,138.08,28.80,24.61,36.34,0.04,-272.74,-272.73,-53,553,-927,23.9,4.6,-19.1,23.9,4.7,-18.7,5.73,2.39,-23.6,27.8
2012-01-31 00:11:00,0.0,1.9343,0.0010,402.34,0.22,274.2,31.8,138.09,28.81,24.61,36.34,0.04,-272.74,-272.74,-53,554,-927,23.9,4.6,-19.1,23.9,4.7,-18.7,5.73,2.45,-23.7,27.5
2012-01-31 00:12:00,0.0,1.9343,0.0010,402.29,0.18,265.1,31.9,138.09,28.82,24.61,36.34,0.04,-272.73,-272.74,-53,554,-927,23.9,4.6,-19.1,23.9,4.7,-18.7,5.73,2.39,-23.7,27.4
2012-01-31 00:13:00,0.0,1.9336,0.0008,402.38,0.20,252.6,29.2,138.10,28.83,24.61,36.34,0.04,-272.73,-272.74,-53,554,-927,23.9,4.6,-19.1,23.9,4.7,-18.7,5.73,2.33,-23.8,27.2
2012-01-31 00:14:00,0.0,1.9337,0.0009,402.34,0.19,247.8,32.8,138.10,28.83,24.61,36.34,0.04,-272.74,-272.74,-53,554,-927,23.9,4.6,-19.1,23.8,4.7,-18.7,5.73,2.31,-23.9,27.1
2012-01-31 00:15:00,0.0,1.9332,0.0009,402.31,0.19,244.1,33.7,138.10,28.84,24.61,36.34,0.04,-272.74,-272.74,-53,554,-927,23.9,4.6,-19.1,23.8,4.7,-18.7,5.73,2.32,-23.9,27.1
2012-01-31 00:16:00,0.0,1.9327,0.0010,402.29,0.18,234.7,36.2,138.11,28.83,24.61,36.34,0.04,-272.74,-272.73,-53,554,-927,23.9,4.6,-19.1,23.8,4.8,-18.7,5.73,2.37,-24.0,27.0
2012-01-31 00:17:00,0.0,1.9325,0.0008,402.19,0.17,217.9,30.2,138.11,28.83,24.61,36.34,0.04,-272.74,-272.74,-53,554,-927,23.9,4.6,-19.0,23.8,4.7,-18.7,5.73,2.40,-24.1,27.0
2012-01-31 00:18:00,0.0,1.9325,0.0008,402.37,0.24,215.4,33.3,138.11,28.82,24.61,36.33,0.04,-272.74,-272.74,-53,554,-927,23.8,4.6,-19.1,23.8,4.8,-18.7,5.73,2.42,-24.1,26.9
2012-01-31 00:19:00,0.0,1.9321,0.0009,402.35,0.21,221.1,33.9,138.11,28.82,24.61,36.34,0.04,-272.73,-272.74,-53,555,-927,23.8,4.6,-19.1,23.8,4.8,-18.7,5.73,2.41,-24.2,26.8
2012-01-31 00:20:00,0.0,1.9319,0.0009,402.35,0.21,206.7,29.5,138.12,28.81,24.61,36.33,0.04,-272.74,-272.74,-53,555,-927,23.8,4.6,-19.0,23.7,4.8,-18.7,5.73,2.38,-24.2,26.7
2012-01-31 00:21:00,0.0,1.9314,0.0010,402.30,0.20,200.9,31.7,138.12,28.81,24.61,36.33,0.04,-272.74,-272.74,-53,555,-927,23.8,4.6,-19.0,23.7,4.8,-18.6,5.73,2.35,-24.3,26.6
2012-01-31 00:22:00,0.0,1.9312,0.0010,402.17,0.20,204.3,28.5,138.12,28.80,24.61,36.34,0.04,-272.74,-272.74,-53,555,-927,23.8,4.7,-18.9,23.7,4.8,-18.6,5.73,2.32,-24.3,26.7
2012-01-31 00:23:00,0.0,1.9312,0.0009,402.27,0.21,193.3,28.6,138.12,28.79,24.61,36.33,0.04,-272.73,-272.74,-53,555,-927,23.8,4.7,-18.9,23.7,4.8,-18.6,5.73,2.31,-24.3,26.6
2012-01-31 00:24:00,0.0,1.9309,0.0010,402.28,0.24,187.9,30.0,138.12,28.78,24.61,36.33,0.04,-272.74,-272.74,-53,555,-927,23.7,4.7,-18.9,23.7,4.9,-18.5,5.73,2.32,-24.3,26.6
2012-01-31 00:25:00,0.0,1.9311,0.0008,402.23,0.20,181.2,33.6,138.12,28.77,24.61,36.33,0.04,-272.74,-272.74,-53,554,-928,23.7,4.7,-18.9,23.7,4.8,-18.6,5.73,2.35,-24.4,26.5
2012-01-31 00:26:00,0.0,1.9312,0.0011,402.22,0.23,180.0,31.8,138.13,28.76,24.61,36.33,0.04,-272.74,-272.74,-53,555,-927,23.7,4.7,-18.8,23.7,4.9,-18.5,5.73,2.39,-24.4,26.4
2012-01-31 00:27:00,0.0,1.9310,0.0009,402.24,0.21,177.8,33.4,138.13,28.74,24.61,36.33,0.04,-272.74,-272.74,-53,554,-927,23.7,4.7,-18.8,23.6,4.9,-18.5,5.73,2.40,-24.4,26.5
2012-01-31 00:28:00,0.0,1.9309,0.0009,402.25,0.21,172.0,31.4,138.13,28.73,24.61,36.33,0.04,-272.74,-272.74,-53,554,-927,23.7,4.7,-18.9,23.6,4.9,-18.5,5.73,2.41,-24.4,26.5
2012-01-31 00:29:00,0.0,1.9310,0.0010,402.24,0.22,166.3,31.5,138.13,28.72,24.61,36.33,0.04,-272.73,-272.74,-53,554,-928,23.7,4.7,-18.8,23.6,4.9,-18.5,5.73,2.41,-24.4,26.4
2012-01-31 00:30:00,0.0,1.9310,0.0009,402.28,0.30,172.4,33.5,138.13,28.71,24.61,36.32,0.04,-272.74,-272.73,-53,554,-927,23.7,4.8,-18.8,23.6,4.9,-18.5,5.73,2.38,-24.5,26.4
2012-01-31 00:31:00,0.0,1.9310,0.0008,402.33,0.26,167.2,32.0,138.13,28.70,24.61,36.32,0.04,-272.74,-272.74,-53,554,-928,23.6,4.8,-18.8,23.6,4.9,-18.4,5.73,2.35,-24.5,26.4
2012-01-31 00:32:00,0.0,1.9310,0.0009,402.18,0.24,162.2,27.7,138.13,28.69,24.61,36.33,0.04,-272.74,-272.74,-53,554,-927,23.6,4.7,-18.9,23.6,4.9,-18.5,5.73,2.33,-24.5,26.3
2012-01-31 00:33:00,0.0,1.9313,0.0009,402.24,0.20,171.8,33.5,138.13,28.68,24.61,36.33,0.04,-272.74,-272.73,-53,554,-927,23.6,4.7,-18.8,23.6,4.9,-18.5,5.73,2.33,-24.5,26.3
2012-01-31 00:34:00,0.0,1.9309,0.0009,402.28,0.23,163.5,29.8,138.13,28.67,24.61,36.33,0.04,-272.74,-272.74,-53,554,-927,23.6,4.8,-18.8,23.6,4.9,-18.5,5.73,2.32,-24.5,26.3
2012-01-31 00:35:00,0.0,1.9308,0.0010,402.18,0.22,147.4,35.2,138.13,28.66,24.61,36.33,0.04,-272.74,-272.74,-53,554,-927,23.6,4.8,-18.7,23.5,4.9,-18.4,5.73,2.34,-24.5,26.3
2012-01-31 00:36:00,0.0,1.9310,0.0010,402.16,0.19,157.1,35.7,138.13,28.65,24.61,36.33,0.04,-272.74,-272.73,-53,554,-927,23.6,4.8,-18.7,23.5,4.9,-18.4,5.73,2.37,-24.5,26.4
2012-01-31 00:37:00,0.0,1.9307,0.0010,402.15,0.21,159.6,33.5,138.13,28.64,24.61,36.33,0.04,-272.74,-272.74,-53,553,-927,23.6,4.8,-18.7,23.6,5.0,-18.4,5.73,2.40,-24.6,26.5
2012-01-31 00:38:00,0.0,1.9308,0.0009,402.29,0.24,152.9,34.0,138.14,28.63,24.60,36.32,0.04,-272.74,-272.74,-53,553,-927,23.5,4.8,-18.7,23.5,5.0,-18.4,5.73,2.41,-24.6,26.4
2012-01-31 00:39:00,0.0,1.9309,0.0009,402.32,0.24,150.2,33.1,138.14,28.63,24.61,36.32,0.04,-272.73,-272.73,-53,553,-927,23.5,4.9,-18.6,23.5,5.0,-18.3,5.73,2.41,-24.6,26.4
2012-01-31 00:40:00,0.0,1.9310,0.0008,402.27,0.21,147.5,38.7,138.14,28.62,24.61,36.33,0.04,-272.74,-272.73,-53,553,-927,23.5,4.8,-18.7,23.5,5.0,-18.4,5.73,2.39,-24.6,26.2
2012-01-31 00:41:00,0.0,1.9310,0.0009,402.30,0.22,154.0,31.4,138.14,28.61,24.61,36.32,0.04,-272.74,-272.74,-53,553,-927,23.5,4.8,-18.7,23.5,5.0,-18.3,5.73,2.35,-24.6,26.2
2012-01-31 00:42:00,0.0,1.9313,0.0010,402.30,0.22,148.4,30.9,138.14,28.60,24.61,36.32,0.04,-272.74,-272.74,-53,553,-927,23.5,4.9,-18.6,23.5,5.0,-18.3,5.73,2.32,-24.6,26.2
2012-01-31 00:43:00,0.0,1.9308,0.0009,402.20,0.21,156.9,33.7,138.14,28.59,24.61,36.33,0.04,-272.73,-272.74,-53,553,-927,23.5,4.9,-18.6,23.5,5.0,-18.3,5.73,2.32,-24.6,26.3
2012-01-31 00:44:00,0.0,1.9308,0.0008,402.22,0.21,155.9,38.5,138.14,28.58,24.61,36.33,0.04,-272.74,-272.74,-53,553,-927,23.5,4.9,-18.6,23.4,5.0,-18.3,5.73,2.33,-24.6,26.3
2012-01-31 00:45:00,0.0,1.9311,0.0008,402.23,0.21,163.7,33.0,138.14,28.58,24.61,36.33,0.04,-272.73,-272.73,-53,552,-927,23.5,4.9,-18.7,23.5,5.0,-18.3,5.73,2.38,-24.6,26.9
2012-01-31 00:46:00,0.0,1.9315,0.0009,402.19,0.22,161.7,29.1,138.13,28.58,24.60,36.33,0.04,-272.73,-272.74,-53,553,-927,23.5,4.8,-18.7,23.5,5.0,-18.4,5.73,2.47,-24.5,27.3
2012-01-31 00:47:00,0.0,1.9311,0.0010,402.09,0.23,180.6,36.2,138.12,28.59,24.61,36.33,0.04,-272.74,-272.74,-52,553,-927,23.5,4.8,-18.8,23.5,5.0,-18.4,5.73,2.25,-24.4,27.5
2012-01-31 00:48:00,0.0,1.9311,0.0010,402.15,0.23,211.1,31.7,138.11,28.61,24.61,36.33,0.04,-272.74,-272.74,-53,553,-927,23.6,4.8,-18.8,23.6,4.9,-18.4,5.73,2.46,-24.2,27.8
2012-01-31 00:49:00,0.0,1.9317,0.0009,402.23,0.18,222.8,32.9,138.10,28.63,24.61,36.33,0.04,-272.73,-272.74,-52,553,-927,23.6,4.8,-18.8,23.6,4.9,-18.4,5.73,2.28,-24.1,27.9
2012-01-31 00:50:00,0.0,1.9329,0.0010,402.29,0.20,239.0,31.5,138.10,28.65,24.60,36.33,0.04,-272.74,-272.74,-53,552,-926,23.6,4.7,-18.9,23.6,4.9,-18.5,5.73,2.46,-24.0,28.1
2012-01-31 00:51:00,0.0,1.9334,0.0009,402.22,0.19,251.7,36.2,138.09,28.68,24.61,36.34,0.04,-272.74,-272.73,-52,553,-927,23.7,4.7,-18.9,23.7,4.9,-18.5,5.73,2.26,-23.9,28.2
2012-01-31 00:52:00,0.0,1.9350,0.0008,402.30,0.18,260.7,31.0,138.08,28.71,24.61,36.34,0.04,-272.73,-272.74,-53,552,-926,23.7,4.7,-19.0,23.7,4.8,-18.6,5.73,2.47,-23.8,28.4
2012-01-31 00:53:00,0.0,1.9356,0.0009,402.30,0.20,272.7,30.4,138.08,28.74,24.61,36.34,0.04,-272.73,-272.73,-52,553,-927,23.8,4.6,-19.1,23.8,4.8,-18.6,5.73,2.25,-23.6,28.2
2012-01-31 00:54:00,0.0,1.9359,0.0011,402.27,0.19,282.4,34.6,138.08,28.77,24.61,36.34,0.04,-272.74,-272.74,-52,553,-927,23.8,4.6,-19.1,23.8,4.8,-18.7,5.73,2.45,-23.6,27.9
2012-01-31 00:55:00,0.0,1.9364,0.0009,402.43,0.23,276.2,30.7,138.09,28.79,24.61,36.33,0.04,-272.73,-272.74,-53,553,-927,23.8,4.5,-19.2,23.8,4.7,-18.8,5.73,2.41,-23.6,27.6
2012-01-31 00:56:00,0.0,1.9363,0.0008,402.50,0.20,262.0,30.1,138.09,28.80,24.61,36.34,0.04,-272.73,-272.74,-53,554,-927,23.8,4.5,-19.3,23.8,4.7,-18.8,5.73,2.32,-23.7,27.3
2012-01-31 00:57:00,0.0,1.9361,0.0009,402.55,0.21,260.4,34.9,138.10,28.81,24.61,36.33,0.04,-272.74,-272.74,-53,554,-927,23.8,4.5,-19.3,23.8,4.7,-18.9,5.73,2.30,-23.8,27.1
2012-01-31 00:58:00,0.0,1.9360,0.0008,402.42,0.20,250.7,29.1,138.10,28.82,24.61,36.34,0.04,-272.74,-272.74,-53,554,-927,23.8,4.5,-19.3,23.8,4.7,-18.9,5.73,2.34,-23.8,27.0
2012-01-31 00:59:00,0.0,1.9353,0.0010,402.38,0.20,246.5,27.9,138.10,28.82,24.61,36.34,0.04,-272.74,-272.74,-53,554,-927,23.8,4.5,-19.3,23.8,4.7,-18.9,5.73,2.38,-23.9,26.9
2012-01-31 01:00:00,0.0,1.9348,0.0008,402.41,0.18,237.8,33.6,138.11,28.82,24.61,36.34,0.04,-272.74,-272.74,-52,554,-927,23.8,4.5,-19.4,23.8,4.6,-19.0,5.73,2.41,-24.0,26.9
2012-01-31 01:01:00,0.0,1.9349,0.0010,402.45,0.24,232.8,32.9,138.11,28.82,24.61,36.34,0.04,-272.74,-272.74,-52,554,-927,23.8,4.5,-19.4,23.7,4.6,-19.1,5.73,2.41,-24.0,26.7
2012-01-31 01:02:00,0.0,1.9344,0.0010,402.38,0.19,226.2,38.5,138.11,28.81,24.61,36.34,0.04,-272.73,-272.73,-53,554,-927,23.8,4.5,-19.4,23.7,4.6,-19.1,5.73,2.41,-24.1,26.7
2012-01-31 01:03:00,0.0,1.9340,0.0008,402.41,0.25,217.9,32.3,138.11,28.81,24.61,36.33,0.04,-272.74,-272.74,-53,554,-927,23.8,4.5,-19.4,23.7,4.6,-19.1,5.73,2.38,-24.1,26.6
2012-01-31 01:04:00,0.0,1.9341,0.0011,402.46,0.24,202.8,31.6,138.12,28.80,24.61,36.33,0.04,-272.74,-272.74,-53,554,-927,23.8,4.5,-19.4,23.7,4.6,-19.1,5.73,2.35,-24.2,26.6
2012-01-31 01:05:00,0.0,1.9334,0.0010,402.38,0.18,205.9,27.7,138.12,28.79,24.61,36.34,0.04,-272.73,-272.74,-53,554,-927,23.7,4.5,-19.4,23.7,4.6,-19.1,5.73,2.33,-24.2,26.5
2012-01-31 01:06:00,0.0,1.9327,0.0009,402.34,0.19,200.2,33.1,138.12,28.78,24.61,36.33,0.04,-272.73,-272.74,-53,554,-927,23.7,4.5,-19.3,23.7,4.7,-19.0,5.73,2.32,-24.2,26.5
2012-01-31 01:07:00,0.0,1.9328,0.0009,402.36,0.16,182.8,33.0,138.12,28.77,24.61,36.33,0.04,-272.74,-272.74,-53,554,-927,23.7,4.5,-19.3,23.7,4.7,-18.9,5.73,2.33,-24.3,26.4
2012-01-31 01:08:00,0.0,1.9329,0.0009,402.31,0.20,184.7,36.5,138.12,28.76,24.61,36.33,0.04,-272.74,-272.74,-53,554,-927,23.7,4.5,-19.4,23.6,4.7,-19.0,5.73,2.34,-24.3,26.4
2012-01-31 01:09:00,0.0,1.9333,0.0009,402.32,0.21,182.2,35.8,138.13,28.75,24.61,36.33,0.04,-272.74,-272.74,-53,554,-927,23.7,4.5,-19.4,23.6,4.6,-19.1,5.73,2.36,-24.3,26.4
2012-01-31 01:10:00,0.0,1.9328,0.0011,402.36,0.21,172.5,34.6,138.13,28.74,24.61,36.33,0.04,-272.74,-272.74,-53,554,-927,23.7,4.5,-19.4,23.6,4.6,-19.1,5.73,2.38,-24.4,26.4
2012-01-31 01:11:00,0.0,1.9331,0.0010,402.30,0.18,176.3,32.0,138.13,28.73,24.61,36.33,0.04,-272.74,-272.74,-53,554,-927,23.7,4.5,-19.4,23.6,4.6,-19.1,5.73,2.39,-24.4,26.4
2012-01-31 01:12:00,0.0,1.9329,0.0009,402.39,0.17,171.2,33.5,138.13,28.72,24.61,36.33,0.04,-272.74,-272.74,-53,554,-927,23.6,4.5,-19.5,23.6,4.6,-19.1,5.73,2.41,-24.4,26.4
2012-01-31 01:13:00,0.0,1.9332,0.0011,402.31,0.18,175.2,31.3,138.13,28.71,24.61,36.34,0.04,-272.74,-272.73,-53,554,-927,23.6,4.5,-19.5,23.5,4.6,-19.2,5.73,2.40,-24.5,26.4
2012-01-31 01:14:00,0.0,1.9329,0.0008,402.32,0.21,175.5,36.3,138.13,28.69,24.61,36.33,0.04,-272.74,-272.74,-53,554,-927,23.6,4.5,-19.5,23.5,4.6,-19.2,5.73,2.39,-24.5,26.3
2012-01-31 01:15:00,0.0,1.9331,0.0010,402.30,0.23,172.9,34.5,138.13,28.68,24.61,36.33,0.04,-272.74,-272.74,-53,553,-927,23.6,4.5,-19.5,23.5,4.6,-19.2,5.73,2.37,-24.5,26.3
2012-01-31 01:16:00,0.0,1.9330,0.0009,402.26,0.20,161.8,38.9,138.13,28.67,24.61,36.34,0.04,-272.74,-272.74,-53,553,-927,23.6,4.5,-19.6,23.5,4.6,-19.3,5.73,2.35,-24.5,26.2
2012-01-31 01:17:00,0.0,1.9329,0.0010,402.37,0.22,162.8,34.6,138.13,28.66,24.61,36.33,0.04,-272.74,-272.73,-53,553,-927,23.5,4.5,-19.6,23.5,4.6,-19.3,5.73,2.34,-24.5,26.2
2012-01-31 01:18:00,0.0,1.9328,0.0009,402.30,0.18,160.8,31.2,138.13,28.65,24.61,36.33,0.04,-272.74,-272.74,-53,553,-927,23.5,4.5,-19.6,23.5,4.6,-19.3,5.73,2.33,-24.6,26.1
2012-01-31 01:19:00,0.0,1.9329,0.0008,402.32,0.20,155.1,32.7,138.14,28.64,24.61,36.33,0.04,-272.74,-272.74,-53,553,-927,23.5,4.5,-19.5,23.5,4.6,-19.2,5.73,2.33,-24.6,26.1
2012-01-31 01:20:00,0.0,1.9328,0.0008,402.46,0.21,157.6,30.2,138.14,28.63,24.61,36.32,0.04,-272.73,-272.74,-53,553,-927,23.5,4.5,-19.5,23.5,4.7,-19.1,5.73,2.33,-24.6,26.1
2012-01-31 01:21:00,0.0,1.9328,0.0009,402.34,0.19,147.3,35.1,138.14,28.62,24.61,36.33,0.04,-272.74,-272.73,-53,553,-927,23.5,4.5,-19.5,23.4,4.7,-19.2,5.73,2.34,-24.6,26.1
2012-01-31 01:22:00,0.0,1.9323,0.0010,402.43,0.21,157.1,31.0,138.14,28.61,24.61,36.32,0.04,-272.74,-272.74,-53,553,-927,23.5,4.5,-19.5,23.4,4.7,-19.2,5.73,2.35,-24.6,26.1
2012-01-31 01:23:00,0.0,1.9321,0.0008,402.39,0.24,155.2,37.3,138.14,28.60,24.61,36.33,0.04,-272.74,-272.74,-53,552,-927,23.5,4.5,-19.5,23.4,4.7,-19.1,5.73,2.36,-24.7,26.0
2012-01-31 01:24:00,0.0,1.9325,0.0009,402.48,0.20,148.5,32.3,138.14,28.59,24.61,36.32,0.04,-272.74,-272.74,-53,553,-927,23.4,4.6,-19.4,23.4,4.7,-19.1,5.73,2.37,-24.7,26.1
2012-01-31 01:25:00,0.0,1.9319,0.0011,402.39,0.21,146.4,32.9,138.14,28.58,24.61,36.33,0.04,-272.74,-272.74,-53,552,-927,23.4,4.6,-19.4,23.3,4.7,-19.1,5.73,2.40,-24.7,26.1
2012-01-31 01:26:00,0.0,1.9323,0.0009,402.34,0.20,145.5,30.5,138.14,28.57,24.61,36.33,0.04,-272.74,-272.74,-53,552,-927,23.4,4.6,-19.4,23.3,4.7,-19.1,5.73,2.45,-24.7,26.7
2012-01-31 01:27:00,0.0,1.9322,0.0009,402.19,0.18,166.1,31.6,138.13,28.57,24.61,36.33,0.04,-272.74,-272.74,-53,552,-927,23.5,4.6,-19.3,23.4,4.7,-19.1,5.73,2.32,-24.6,27.1
2012-01-31 01:28:00,0.0,1.9323,0.0008,402.20,0.18,180.5,30.8,138.12,28.58,24.60,36.33,0.04,-272.74,-272.75,-53,552,-926,23.5,4.6,-19.3,23.4,4.8,-19.0,5.73,2.30,-24.4,27.4
2012-01-31 01:29:00,0.0,1.9318,0.0010,402.14,0.21,203.6,36.8,138.11,28.59,24.61,36.33,0.04,-272.74,-272.74,-53,552,-926,23.5,4.6,-19.2,23.5,4.8,-18.9,5.73,2.47,-24.3,27.6
2012-01-31 01:30:00,0.0,1.9321,0.0008,402.18,0.20,223.0,31.9,138.11,28.61,24.61,36.33,0.04,-272.74,-272.73,-53,552,-927,23.5,4.6,-19.2,23.5,4.8,-18.7,5.73,2.25,-24.2,27.8
2012-01-31 01:31:00,0.0,1.9331,0.0008,402.20,0.18,237.1,33.9,138.10,28.63,24.61,36.33,0.04,-272.73,-272.73,-53,552,-926,23.6,4.6,-19.2,23.5,4.8,-18.8,5.73,2.48,-24.1,28.0
2012-01-31 01:32:00,0.0,1.9343,0.0008,402.22,0.21,249.2,31.4,138.09,28.66,24.61,36.34,0.04,-272.73,-272.74,-53,552,-926,23.6,4.6,-19.2,23.6,4.8,-18.7,5.73,2.25,-23.9,28.1
2012-01-31 01:33:00,0.0,1.9350,0.0010,402.30,0.20,253.5,29.7,138.09,28.69,24.61,36.34,0.04,-272.73,-272.73,-52,552,-926,23.6,4.6,-19.2,23.6,4.8,-18.8,5.73,2.46,-23.8,28.2
2012-01-31 01:34:00,0.0,1.9356,0.0009,402.33,0.20,261.5,35.2,138.08,28.72,24.61,36.34,0.04,-272.73,-272.73,-53,552,-927,23.7,4.6,-19.2,23.7,4.8,-18.7,5.73,2.26,-23.7,28.2
2012-01-31 01:35:00,0.0,1.9361,0.0010,402.35,0.17,273.8,31.2,138.09,28.74,24.61,36.34,0.04,-272.73,-272.74,-52,553,-927,23.7,4.6,-19.3,23.7,4.7,-18.8,5.73,2.48,-23.7,27.7
2012-01-31 01:36:00,0.0,1.9363,0.0007,402.41,0.20,267.0,30.8,138.09,28.77,24.61,36.34,0.04,-272.73,-272.74,-52,553,-927,23.7,4.5,-19.4,23.7,4.7,-18.9,5.73,2.38,-23.7,27.5
2012-01-31 01:37:00,0.0,1.9357,0.0008,402.53,0.21,256.9,27.2,138.09,28.78,24.61,36.34,0.04,-272.74,-272.74,-53,553,-927,23.7,4.5,-19.4,23.7,4.7,-19.0,5.73,2.31,-23.8,27.3
2012-01-31 01:38:00,0.0,1.9359,0.0008,402.45,0.21,249.1,35.6,138.10,28.79,24.61,36.34,0.04,-272.74,-272.74,-53,553,-927,23.7,4.5,-19.5,23.7,4.6,-19.1,5.73,2.32,-23.9,27.1
2012-01-31 01:39:00,0.0,1.9360,0.0009,402.49,0.24,245.7,32.8,138.10,28.79,24.61,36.34,0.04,-272.74,-272.74,-53,553,-928,23.7,4.5,-19.5,23.7,4.6,-19.1,5.73,2.35,-23.9,27.0
2012-01-31 01:40:00,0.0,1.9355,0.0009,402.55,0.20,233.2,28.3,138.10,28.79,24.61,36.33,0.04,-272.74,-272.74,-53,553,-928,23.7,4.5,-19.5,23.7,4.6,-19.1,5.73,2.37,-24.0,26.9
2012-01-31 01:41:00,0.0,1.9355,0.0009,402.50,0.22,224.6,31.8,138.11,28.79,24.61,36.33,0.04,-272.74,-272.73,-52,554,-928,23.7,4.5,-19.4,23.6,4.6,-19.1,5.73,2.38,-24.1,26.8
2012-01-31 01:42:00,0.0,1.9351,0.0009,402.49,0.23,221.0,30.7,138.11,28.79,24.61,36.33,0.04,-272.74,-272.74,-53,553,-928,23.7,4.5,-19.4,23.6,4.7,-19.1,5.73,2.39,-24.2,26.8
2012-01-31 01:43:00,0.0,1.9348,0.0008,402.41,0.25,218.7,33.2,138.12,28.78,24.61,36.34,0.04,-272.73,-272.74,-53,554,-928,23.7,4.5,-19.3,23.6,4.7,-19.0,5.73,2.40,-24.2,26.6
2012-01-31 01:44:00,0.0,1.9343,0.0010,402.40,0.25,200.4,34.6,138.12,28.77,24.61,36.33,0.04,-272.74,-272.74,-53,553,-928,23.7,4.6,-19.2,23.6,4.7,-18.9,5.73,2.40,-24.3,26.5
2012-01-31 01:45:00,0.0,1.9341,0.0008,402.40,0.18,194.0,29.6,138.12,28.76,24.61,36.34,0.04,-272.74,-272.74,-53,553,-928,23.6,4.6,-19.1,23.6,4.8,-18.8,5.73,2.40,-24.3,26.4
2012-01-31 01:46:00,0.0,1.9345,0.0010,402.28,0.22,186.5,35.7,138.12,28.75,24.61,36.34,0.04,-272.74,-272.74,-52,553,-928,23.6,4.6,-19.1,23.5,4.8,-18.8,5.73,2.39,-24.4,26.5
2012-01-31 01:47:00,0.0,1.9344,0.0009,402.39,0.20,177.7,36.6,138.13,28.74,24.61,36.33,0.04,-272.73,-272.74,-52,553,-928,23.6,4.6,-19.1,23.5,4.8,-18.8,5.73,2.39,-24.4,26.4
2012-01-31 01:48:00,0.0,1.9347,0.0009,402.46,0.25,176.6,33.2,138.13,28.73,24.61,36.33,0.04,-272.74,-272.74,-52,553,-928,23.6,4.6,-19.2,23.5,4.8,-18.8,5.73,2.38,-24.4,26.4
2012-01-31 01:49:00,0.0,1.9347,0.0011,402.37,0.23,166.4,38.2,138.13,28.72,24.61,36.33,0.04,-272.74,-272.74,-52,553,-928,23.6,4.6,-19.2,23.5,4.8,-18.9,5.73,2.37,-24.5,26.3
2012-01-31 01:50:00,0.0,1.9348,0.0010,402.37,0.24,177.6,35.3,138.13,28.70,24.61,36.33,0.04,-272.74,-272.74,-52,553,-928,23.5,4.6,-19.2,23.5,4.8,-18.9,5.73,2.36,-24.5,26.3
2012-01-31 01:51:00,0.0,1.9345,0.0008,402.37,0.22,172.6,32.8,138.13,28.69,24.61,36.33,0.04,-272.73,-272.74,-52,553,-928,23.5,4.6,-19.3,23.5,4.8,-18.9,5.73,2.35,-24.5,26.3
2012-01-31 01:52:00,0.0,1.9345,0.0010,402.29,0.21,162.7,30.2,138.13,28.68,24.61,36.33,0.04,-272.74,-272.74,-52,553,-928,23.5,4.6,-19.3,23.4,4.7,-19.0,5.73,2.35,-24.5,26.3
2012-01-31 01:53:00,0.0,1.9342,0.0009,402.43,0.26,170.4,31.0,138.13,28.67,24.61,36.33,0.04,-272.74,-272.74,-52,553,-928,23.5,4.6,-19.3,23.4,4.8,-19.0,5.73,2.34,-24.6,26.3
2012-01-31 01:54:00,0.0,1.9336,0.0009,402.43,0.22,167.6,35.7,138.13,28.65,24.61,36.33,0.04,-272.74,-272.74,-53,553,-928,23.5,4.6,-19.3,23.4,4.8,-19.0,5.73,2.35,-24.6,26.2
2012-01-31 01:55:00,0.0,1.9338,0.0008,402.41,0.21,158.1,33.8,138.13,28.64,24.61,36.33,0.04,-272.74,-272.73,-52,553,-928,23.5,4.6,-19.3,23.4,4.8,-19.0,5.73,2.35,-24.6,26.3
2012-01-31 01:56:00,0.0,1.9336,0.0009,402.39,0.25,166.4,34.0,138.14,28.63,24.61,36.33,0.04,-272.74,-272.74,-52,553,-928,23.5,4.6,-19.3,23.4,4.8,-19.0,5.73,2.35,-24.6,26.1
2012-01-31 01:57:00,0.0,1.9333,0.0009,402.32,0.20,155.0,28.3,138.14,28.62,24.61,36.33,0.04,-272.74,-272.74,-52,553,-928,23.5,4.6,-19.3,23.4,4.8,-19.0,5.73,2.36,-24.6,26.2
2012-01-31 01:58:00,0.0,1.9336,0.0009,402.45,0.28,155.6,31.0,138.14,28.61,24.61,36.33,0.04,-272.74,-272.74,-52,553,-928,23.4,4.6,-19.3,23.4,4.8,-18.9,5.73,2.37,-24.6,26.2
2012-01-31 01:59:00,0.0,1.9332,0.0011,402.47,0.21,155.0,37.5,138.14,28.60,24.61,36.32,0.04,-272.73,-272.74,-53,552,-928,23.4,4.6,-19.2,23.3,4.8,-18.9,5.73,2.38,-24.6,26.1
2012-01-31 02:00:00,0.0,1.9331,0.0009,402.40,0.21,148.3,32.0,138.14,28.59,24.61,36.33,0.04,-272.73,-272.73,-53,553,-928,23.4,4.7,-19.1,23.3,4.8,-18.9,5.73,2.39,-24.6,26.1
2012-01-31 02:01:00,0.0,1.9330,0.0009,402.31,0.22,153.6,29.2,138.14,28.58,24.61,36.33,0.04,-272.74,-272.74,-52,552,-928,23.4,4.7,-19.1,23.3,4.8,-18.8,5.73,2.40,-24.6,26.1
2012-01-31 02:02:00,0.0,1.9326,0.0008,402.36,0.20,150.4,35.0,138.14,28.57,24.60,36.33,0.04,-272.73,-272.74,-53,552,-928,23.4,4.7,-19.1,23.3,4.9,-18.8,5.73,2.40,-24.6,26.0
2012-01-31 02:03:00,0.0,1.9325,0.0011,402.38,0.21,149.2,29.1,138.14,28.56,24.61,36.33,0.04,-272.73,-272.73,-52,552,-928,23.4,4.7,-19.1,23.3,4.9,-18.8,5.73,2.41,-24.6,26.1
2012-01-31 02:04:00,0.0,1.9323,0.0009,402.27,0.22,164.7,30.8,138.13,28.56,24.61,36.33,0.04,-272.73,-272.73,-52,552,-928,23.4,4.7,-19.0,23.3,4.9,-18.7,5.73,2.37,-24.6,26.8
2012-01-31 02:05:00,0.0,1.9327,0.0012,402.16,0.20,162.4,34.2,138.13,28.56,24.61,36.33,0.04,-272.73,-272.74,-52,553,-927,23.4,4.7,-19.0,23.3,4.9,-18.7,5.73,2.26,-24.5,27.2
2012-01-31 02:06:00,0.0,1.9322,0.0008,402.01,0.20,188.0,35.8,138.12,28.57,24.61,36.34,0.04,-272.74,-272.74,-52,552,-927,23.4,4.8,-18.9,23.4,4.9,-18.6,5.73,2.48,-24.3,27.5
2012-01-31 02:07:00,0.0,1.9324,0.0010,402.18,0.20,210.7,31.1,138.11,28.58,24.61,36.33,0.04,-272.73,-272.74,-52,552,-927,23.5,4.7,-18.9,23.4,4.9,-18.6,5.73,2.29,-24.2,27.7
2012-01-31 02:08:00,0.0,1.9327,0.0009,402.21,0.23,222.5,31.7,138.10,28.60,24.60,36.33,0.04,-272.74,-272.74,-51,552,-927,23.5,4.7,-19.0,23.5,4.9,-18.6,5.73,2.43,-24.1,27.9
2012-01-31 02:09:00,0.0,1.9336,0.0009,402.23,0.20,232.5,31.7,138.10,28.63,24.60,36.33,0.04,-272.74,-272.73,-52,552,-927,23.5,4.7,-19.1,23.5,4.8,-18.7,5.73,2.31,-24.0,28.0
2012-01-31 02:10:00,0.0,1.9342,0.0010,402.26,0.21,253.0,33.3,138.09,28.65,24.61,36.34,0.04,-272.74,-272.74,-52,552,-927,23.6,4.6,-19.1,23.6,4.8,-18.7,5.73,2.44,-23.9,28.2
2012-01-31 02:11:00,0.0,1.9354,0.0008,402.47,0.20,258.1,35.8,138.09,28.68,24.61,36.33,0.27,-270.79,-272.37,-52,552,-927,23.6,4.6,-19.2,23.6,4.8,-18.7,5.42,2.36,-28.2,28.3
2012-01-31 02:12:00,0.0,1.9359,0.0009,402.30,0.20,266.5,31.3,138.08,28.71,24.61,36.34,0.04,-272.74,-272.74,-52,552,-927,23.7,4.6,-19.2,23.7,4.8,-18.7,5.73,2.47,-23.7,28.2
2012-01-31 02:13:00,0.0,1.9363,0.0008,402.31,0.18,269.1,34.3,138.08,28.74,24.61,36.34,0.04,-272.73,-272.73,-51,552,-927,23.7,4.6,-19.1,23.7,4.8,-18.7,5.73,2.31,-23.6,27.8
2012-01-31 02:14:00,0.0,1.9362,0.0007,402.46,0.20,271.3,31.8,138.09,28.76,24.61,36.34,0.04,-272.73,-272.74,-52,553,-927,23.7,4.6,-19.1,23.7,4.8,-18.7,5.73,2.31,-23.6,27.5
2012-01-31 02:15:00,0.0,1.9365,0.0009,402.44,0.20,262.8,35.3,138.09,28.78,24.61,36.34,0.04,-272.73,-272.74,-52,553,-927,23.7,4.6,-19.1,23.7,4.8,-18.7,5.73,2.42,-23.7,27.4
2012-01-31 02:16:00,0.0,1.9361,0.0009,402.41,0.18,256.1,27.8,138.09,28.79,24.61,36.34,0.04,-272.74,-272.74,-52,554,-927,23.8,4.6,-19.0,23.7,4.8,-18.6,5.73,2.44,-23.7,27.3